Location: Budapest
(47.4979°N, 19.0402°E)
Time: 07:53:58
(UTC+02:00)

Envisat - Pass Details

Date: 17 October 2017
Orbit: 764 x 766 km, 98.2° (Epoch: 20 April)

Event Time Altitude Azimuth Distance (km) Brightness Sun altitude
Exits shadow 19:28:48 29° 84° (E) 1,387 3.8 -17.1°
Maximum altitude 19:29:42 31° 65° (ENE) 1,331 3.8 -17.2°
Drops below altitude 10° 19:34:08 10° 4° (N) 2,316 5.5 -18.0°
Sets 19:36:40 0° 355° (N) 3,247 6.4 -18.4°
